Vertical_Velocity
-1 -1 -1 -1 -1 -1 -0 0 -0 -1 -2 -2 -2 -1 -1 -1 -0 1 2 2 2 -0 -2 -3 -3 -6 -8 -10 -9 -7 -5 -2 -1 1 2 3 3 2 2 1 1 2 1 0 1 2 4 5 5 4 2 -0 -0 0 1 3 4 5 6 5 4 3 4 8 14 16 15 10 9
-1 -1 -1 -1 -1 -1 -0 0 0 -0 -1 -2 -2 -2 -2 -2 -1 -1 0 1 1 1 0 -0 -1 -2 -4 -7 -9 -10 -10 -8 -5 -2 0 2 3 4 4 1 -1 -0 2 5 1 -0 0 2 5 6 7 5 2 0 -0 -0 1 2 3 4 4 4 3 2 1 0 -0 -1 -0
-1 -1 -1 -1 -1 -1 -1 -0 0 -0 -1 -1 -1 -2 -2 -2 -2 -2 -1 -0 -0 0 1 1 0 -0 -1 -2 -5 -8 -10 -11 -8 -6 -3 -1 0 2 3 5 0 0 3 9 7 3 0 -0 2 4 6 9 8 5 2 -0 -0 -0 -0 1 2 3 3 2 1 -1 -2 -3 -3
-0 -0 -1 -1 -1 -1 -1 -1 0 0 -0 -1 -1 -1 -2 -2 -2 -2 -2 -1 -1 -0 0 1 1 1 0 -0 -2 -4 -6 -8 -10 -9 -6 -3 -2 -1 -0 2 2 3 5 10 10 8 5 1 1 1 2 4 7 8 6 4 1 0 0 1 2 2 2 2 1 -0 -1 -4 -5
-0 -0 -0 -0 -0 -1 -1 -1 -0 0 0 -0 -0 -1 -1 -2 -2 -2 -1 -1 -1 -1 -1 -0 0 1 0 -0 -0 -1 -2 -4 -6 -8 -8 -6 -4 -3 -2 -2 -1 1 5 8 10 10 9 6 3 1 0 1 2 5 8 8 5 3 1 1 1 1 1 1 0 -1 -2 -4 -1
-0 0 -0 -0 -0 -0 -0 -1 -0 0 1 1 0 -1 -1 -1 -1 -1 -1 -1 -1 -1 -1 -1 -0 0 1 0 0 0 -0 -1 -2 -4 -6 -7 -6 -5 -4 -4 -3 -1 1 4 7 9 10 10 7 4 1 -0 0 2 4 7 8 6 3 0 -0 -0 -0 -0 -1 -1 2 8 14
0 0 0 -0 0 0 0 -0 -0 -0 0 1 1 -0 -1 -1 -1 0 0 -1 -1 -2 -2 -1 -0 0 1 1 1 0 0 -0 -1 -2 -3 -4 -6 -6 -6 -5 -3 -2 -0 2 3 5 8 10 10 8 5 1 -0 -0 0 2 5 6 5 2 -0 -2 -3 -3 -2 4 13 24 19
0 0 0 -0 0 0 0 0 -0 -0 0 1 1 0 -0 -1 -1 0 1 0 -1 -2 -2 -1 -1 -0 0 1 1 0 0 0 -0 -1 -1 -2 -3 -4 -5 -6 -5 -3 -1 2 2 2 3 6 8 9 9 6 2 -0 -1 -0 2 3 4 5 1 -1 -3 -4 -1 9 18 20 7
1 0 0 0 -0 0 0 0 0 -0 -0 0 1 1 0 -1 -1 -0 1 1 -0 -1 -1 -1 -1 -1 -0 0 0 0 0 0 0 -0 -1 -1 -1 -2 -3 -5 -6 -6 -4 0 2 2 1 1 4 7 8 10 6 3 1 0 1 2 4 5 5 2 -0 -2 3 10 14 7 -1
1 0 0 0 -0 -0 0 0 0 0 0 0 1 1 1 -0 -1 -1 -0 1 0 -0 -1 -1 -1 -1 -1 -0 -0 -0 0 0 0 -0 -0 -1 -1 -1 -2 -3 -4 -6 -6 -4 -1 1 1 -0 1 2 4 8 9 7 4 1 1 2 3 6 8 8 8 7 9 10 7 -0 -3
1 1 1 0 -0 -0 -0 0 0 0 0 0 1 1 1 0 -0 -1 -1 -0 0 0 -0 -0 -1 -1 -1 -1 -0 -0 -0 -0 -0 -0 -0 -0 -0 -1 -1 -2 -3 -4 -6 -7 -4 -2 -0 -0 -0 -0 0 1 6 8 8 4 2 1 2 3 7 11 14 17 18 13 5 -3 -3
1 1 1 1 0 -0 -0 -0 -0 -0 0 0 1 1 1 1 0 -0 -1 -1 -0 -0 -0 -0 -1 -1 -1 -1 -1 -1 -0 -0 -0 -0 -0 -0 -0 -0 -0 -1 -1 -2 -4 -5 -6 -5 -3 -1 0 0 -0 -1 0 3 6 7 4 2 0 -0 2 7 12 18 21 18 10 1 -0
1 1 1 1 1 0 -0 -0 -0 -0 0 0 0 1 1 1 1 1 -0 -1 -1 -1 -1 -1 -1 -0 -1 -1 -1 -1 -1 -0 -0 -0 -0 -0 -0 -0 0 0 -0 -1 -2 -3 -4 -5 -4 -4 -1 1 2 1 -1 -1 0 4 5 4 1 -0 -0 2 6 11 16 17 16 11 7
2 2 2 2 1 1 0 -0 -0 -0 -0 -0 0 0 1 1 1 1 1 -0 -1 -1 -1 -1 -1 -1 -1 -1 -1 -1 -1 -1 -1 -1 -1 -0 -0 -0 0 1 1 1 -0 -1 -2 -3 -4 -4 -4 -1 1 3 1 -1 -2 -2 1 3 3 2 1 -0 1 4 8 12 14 14 12
2 2 2 2 2 2 1 1 0 -0 -0 -0 -0 -0 0 1 1 1 1 0 -0 -1 -1 -0 -1 -1 -1 -1 -1 -1 -1 -1 -1 -1 -1 -1 -1 -0 -0 1 1 1 1 0 -1 -1 -2 -2 -4 -3 -1 2 2 1 -2 -4 -4 -2 0 3 3 2 1 0 2 5 8 10 10
1 2 2 2 2 2 2 1 1 0 -0 -1 -1 -0 -0 0 1 1 1 1 -0 -0 -0 -0 -1 -1 -1 -1 -1 -1 -1 -1 -1 -1 -1 -0 -1 -1 -0 -0 0 1 1 0 -0 -0 -0 -1 -2 -2 -2 -1 2 2 0 -2 -5 -6 -6 -2 1 3 3 2 1 1 3 5 6
1 2 2 3 3 3 2 2 2 1 0 -0 -0 -0 -0 -0 0 0 1 1 0 -0 -0 -0 -0 -0 -0 -1 -1 -1 -1 -1 -1 -1 -1 -1 -1 -1 -1 -1 -0 -0 0 -0 -0 -0 -0 -0 -1 -1 -1 -1 0 1 2 0 -3 -6 -8 -8 -5 -2 1 3 2 2 2 3 4
1 1 2 3 3 3 3 3 2 1 1 -0 -0 -0 -0 -0 -0 0 0 0 0 0 -0 -0 -0 -0 -0 -0 -0 -1 -1 -1 -1 -1 -1 -1 -1 -1 -1 -1 -1 -0 -0 -0 -0 -0 -0 -0 -0 -0 -0 -1 -1 1 2 2 -0 -3 -5 -8 -8 -7 -5 -2 -0 1 2 4 4
1 1 2 3 4 4 4 3 2 2 1 0 -0 -0 -0 -0 -0 -0 -0 -0 -0 -0 -0 -0 -0 -0 -0 -0 -0 -0 -1 -1 -1 -1 -1 -1 -1 -1 -1 -1 -1 -1 -0 -0 -0 -0 -1 -1 -0 -0 -0 -0 -1 -0 1 2 2 1 -1 -4 -6 -7 -8 -7 -5 -4 -2 0 3
2 2 2 3 4 4 4 4 3 2 1 0 0 -0 -0 -0 0 0 -0 -0 -0 -0 -0 -0 -0 -0 -0 -0 -0 -0 -0 -1 -1 -1 -1 -1 -1 -1 -1 -1 -1 -1 -1 -1 -0 -0 -1 -1 -0 -0 -0 -0 -1 -1 -0 1 2 2 1 -0 -2 -4 -5 -5 -6 -6 -7 -7 -4
3 3 3 3 4 4 4 4 3 2 1 1 0 0 0 0 1 1 0 -0 -0 -0 -1 -1 -1 -1 -1 -1 -0 -0 -0 -0 -1 -1 -1 -1 -1 -1 -1 -1 -2 -2 -1 -1 -1 -1 -0 -1 -0 -0 -0 -0 -1 -1 -1 -1 0 1 2 1 0 -1 -2 -2 -3 -3 -5 -7 -8
4 3 2 2 3 3 4 4 3 2 1 1 1 1 0 1 1 1 1 0 0 -0 -1 -1 -1 -1 -1 -1 -1 -0 -0 -0 -1 -1 -1 -1 -0 -0 -1 -1 -1 -1 -1 -1 -1 -1 -0 -0 -1 -1 -1 -1 -1 -1 -1 -1 -0 0 1 1 1 1 0 -0 -1 -1 -1 -2 -4
4 3 2 2 2 3 3 3 3 2 2 2 1 1 1 1 1 1 1 1 1 0 -0 -1 -1 -1 -1 -1 -1 -1 -1 -1 -1 -1 -1 -1 -1 -0 -0 -0 -0 -0 -1 -1 -1 -1 -1 -0 -0 -1 -1 -1 -1 -1 -0 -1 -0 -0 0 1 1 1 1 1 0 0 0 0 -0
3 3 2 2 2 2 3 3 3 3 3 3 2 2 1 1 1 1 2 2 1 1 -0 -0 -1 -1 -1 -2 -1 -1 -1 -1 -1 -1 -1 -1 -1 -1 -1 -0 -0 -0 -0 -1 -1 -1 -1 -0 -0 -1 -1 -1 -1 -1 -1 -0 -0 -0 0 1 1 1 1 1 1 1 1 2 1
2 2 2 2 2 2 2 2 3 4 4 4 3 2 2 1 1 1 2 2 2 1 1 0 -0 -1 -1 -2 -2 -2 -1 -1 -1 -1 -1 -1 -1 -1 -1 -1 -0 -0 -0 -0 -1 -0 -0 -0 -0 -1 -1 -1 -1 -1 -1 -1 -1 -0 0 0 1 1 1 1 1 1 1 2 1
1 1 2 3 2 2 1 2 3 3 4 4 3 2 2 2 1 2 2 2 2 2 1 1 0 -0 -1 -1 -1 -1 -1 -1 -1 -1 -1 -1 -1 -1 -1 -1 -1 -0 -0 -0 -0 -0 -0 -1 -1 -1 -1 -1 -1 -1 -2 -2 -1 -1 -0 -0 0 0 1 0 0 1 1 1 1
-1 0 1 2 2 2 2 1 2 2 3 3 3 3 2 2 2 2 2 3 3 2 2 1 1 0 -0 -1 -1 -1 -1 -1 -1 -1 -0 -0 -0 -1 -1 -1 -1 -1 -1 -0 0 0 -0 -1 -1 -1 -1 -1 -1 -1 -1 -1 -1 -1 -1 -0 -0 0 0 0 0 0 0 0 -0
-1 -1 -1 0 1 2 2 1 1 1 2 3 3 3 3 2 2 2 2 3 3 3 2 2 2 1 0 -0 -1 -1 -1 -1 -1 -1 -0 -0 -0 -0 -0 -1 -1 -1 -1 -0 -0 -0 -0 -0 -1 -1 -1 -1 -1 -1 -1 -1 -2 -1 -1 -1 -0 -0 -0 0 0 0 0 0 -0
-1 -1 -2 -2 -0 1 2 2 2 1 1 2 2 2 2 2 2 2 2 3 3 3 3 3 2 1 1 0 -1 -1 -1 -1 -1 -1 -1 -0 -0 -0 -0 -0 -0 -1 -1 -0 -0 -0 -0 -0 -0 -0 -1 -1 -1 -1 -1 -1 -1 -1 -1 -1 -1 -0 -0 -0 0 0 0 0 1
-0 -1 -2 -2 -2 -0 1 2 2 2 1 -0 -0 -0 -0 1 1 2 3 3 4 4 4 3 2 2 1 0 -1 -1 -1 -1 -1 -1 -1 -1 -0 -0 -0 -0 -0 -0 -0 -0 -0 -0 -0 -0 -0 -0 -0 -1 -1 -1 -1 -1 -1 -1 -1 -1 -1 -1 -0 -0 -0 0 0 1 1
0 -0 -1 -2 -2 -1 0 2 2 2 0 -1 -1 -2 -1 -0 1 2 3 4 4 3 3 3 3 2 2 0 -1 -1 -1 -1 -1 -1 -1 -1 -1 -1 -0 -0 -0 -0 -0 -0 -0 -0 -0 -0 -0 -0 -0 -1 -1 -1 -1 -1 -1 -1 -1 -1 -1 -1 -1 -0 -0 0 0 1 1
0 0 -0 -1 -1 -1 -0 1 1 1 1 -0 -1 -2 -1 -0 1 2 2 3 2 2 3 3 3 3 2 1 0 -1 -1 -1 -1 -1 -1 -1 -1 -1 -1 -0 -0 -0 -0 -0 -0 -0 -0 -0 -1 -1 -1 -1 -1 -0 -0 -0 -0 -1 -1 -1 -1 -1 -1 -1 -0 -0 0 0 0
1 1 0 -0 -1 -1 -0 0 1 1 1 0 -0 -1 -1 -0 0 1 1 1 2 2 3 3 3 3 3 2 1 -1 -2 -2 -2 -1 -1 -0 -0 -1 -1 -1 -1 -1 -0 -0 -0 -0 -0 -0 -1 -1 -2 -2 -1 -0 -0 -0 -0 -0 -0 -1 -1 -1 -1 -1 -1 -0 -0 -0 0
2 1 1 0 -1 -1 -1 -0 0 1 1 1 1 0 1 1 0 0 1 1 2 2 3 3 3 3 2 2 1 -1 -1 -2 -2 -1 -1 -0 -0 -0 -1 -1 -1 -1 -1 -0 -0 -0 -0 -0 -1 -1 -2 -2 -1 -1 -0 -0 -0 -0 -0 -0 -0 -0 -1 -1 -1 -0 -0 -0 -0
2 1 1 -0 -1 -2 -2 -2 -1 0 1 1 1 2 2 2 1 1 1 2 2 2 2 3 3 2 2 1 1 0 -0 -1 -1 -1 -1 -0 -0 -0 -0 -1 -1 -1 -0 -0 -0 -0 -0 -0 -0 -1 -2 -2 -2 -1 -1 -0 -0 -0 -0 -0 -0 -0 -0 -0 -0 -0 -0 -0 -0
2 2 1 -0 -1 -2 -3 -3 -3 -2 -1 0 1 2 3 3 3 3 2 2 1 1 2 2 3 2 2 2 2 1 1 -0 -1 -1 -1 -1 -0 -0 -1 -1 -1 -0 -0 -0 -0 -0 -0 -0 -0 -1 -1 -2 -2 -2 -1 -1 -1 -0 -0 -0 -0 -0 -0 -0 -0 -0 -0 -0 -0
2 1 1 0 -1 -2 -2 -3 -3 -3 -2 -1 1 3 4 4 4 3 2 2 1 1 1 2 3 3 3 3 3 2 1 0 -0 -1 -1 -1 -1 -1 -1 -1 -0 -0 0 0 -0 -0 -0 -0 -0 -0 -1 -2 -2 -2 -2 -1 -1 -1 -1 -0 -0 -0 0 0 -0 -0 -0 -0 -0
1 1 1 0 -0 -1 -1 -2 -2 -2 -1 -1 0 1 2 3 4 3 2 1 2 2 2 3 4 4 4 3 3 2 1 -0 -0 -1 -1 -1 -1 -1 -1 -1 -0 -0 0 0 -0 -0 -0 -0 -0 -0 -1 -1 -2 -2 -2 -2 -2 -2 -1 -1 -1 -0 -0 -0 -0 -0 -0 -0 -1
1 1 1 1 0 -0 -1 -1 -0 -0 -0 -1 -1 -1 -0 1 2 2 2 2 2 2 3 3 4 4 4 3 2 1 0 -0 -1 -1 -1 -1 -2 -2 -1 -1 -1 -0 0 0 0 -0 -0 0 0 -0 -1 -1 -1 -1 -2 -2 -2 -2 -2 -2 -1 -1 -1 -0 -0 -0 -0 -0 -1
1 1 1 1 1 0 0 0 0 0 -0 -1 -2 -2 -2 -1 1 2 2 2 3 3 3 3 4 4 3 1 0 -0 -0 -0 -1 -0 -0 -1 -2 -2 -2 -1 -1 -0 0 1 0 -0 -0 0 1 0 -0 -1 -1 -1 -1 -2 -2 -2 -2 -2 -2 -1 -1 -1 -1 -1 -1 -1 -1
1 1 1 1 1 2 1 1 1 0 -0 -1 -2 -2 -2 -2 -1 -0 1 2 2 3 3 3 4 3 2 0 -1 -1 -1 -0 -0 -0 -0 -1 -1 -2 -2 -2 -1 -1 -0 0 0 0 -0 0 1 1 -0 -1 -1 -1 -1 -1 -2 -2 -2 -2 -2 -1 -1 -1 -1 -1 -1 -1 -1
Height
3024 3023 3023 3023 3023 3022 3022 3022 3022 3022 3021 3021 3022 3022 3022 3023 3023 3024 3024 3025 3025 3026 3027 3027 3027 3028 3027 3027 3027 3027 3028 3028 3029 3030 3030 3031 3032 3033 3033 3033 3033 3034 3035 3036 3036 3037 3038 3039 3040 3041 3042 3043 3044 3045 3046 3048 3049 3050 3051 3052 3054 3055 3057 3059 3060 3061 3063 3064 3065
3023 3022 3022 3022 3022 3022 3021 3021 3021 3021 3021 3021 3021 3021 3021 3021 3022 3022 3023 3023 3024 3025 3025 3026 3026 3027 3028 3028 3028 3028 3028 3028 3028 3029 3029 3030 3031 3032 3033 3033 3033 3034 3035 3035 3036 3036 3037 3038 3039 3040 3041 3042 3042 3043 3045 3046 3047 3048 3049 3050 3051 3053 3055 3056 3058 3059 3060 3061 3062
3022 3022 3021 3021 3021 3021 3021 3021 3020 3020 3020 3020 3020 3020 3020 3020 3021 3021 3021 3022 3022 3023 3024 3024 3025 3025 3026 3027 3028 3028 3028 3028 3028 3028 3029 3029 3029 3030 3031 3032 3033 3033 3034 3035 3035 3036 3036 3037 3038 3039 3040 3041 3041 3042 3043 3044 3045 3046 3048 3049 3050 3051 3053 3054 3055 3057 3058 3059 3060
3020 3020 3020 3020 3020 3020 3020 3020 3020 3020 3020 3019 3019 3019 3019 3020 3020 3020 3020 3021 3021 3021 3022 3022 3023 3024 3025 3025 3026 3027 3028 3028 3028 3028 3028 3028 3028 3029 3030 3030 3032 3033 3033 3033 3034 3035 3035 3036 3037 3037 3038 3039 3040 3041 3042 3043 3044 3045 3046 3047 3048 3050 3050 3051 3053 3054 3055 3056 3058
3019 3020 3020 3020 3019 3019 3019 3019 3019 3019 3019 3019 3018 3018 3018 3019 3019 3019 3020 3020 3020 3020 3021 3021 3022 3022 3023 3024 3025 3025 3026 3027 3028 3028 3028 3028 3028 3027 3028 3029 3030 3031 3031 3032 3033 3034 3034 3035 3036 3036 3037 3038 3038 3040 3041 3042 3043 3044 3045 3046 3047 3048 3049 3050 3051 3052 3053 3054 3056
3018 3018 3018 3018 3018 3018 3018 3018 3018 3018 3018 3018 3018 3017 3017 3017 3018 3018 3018 3019 3019 3019 3020 3020 3020 3021 3021 3022 3023 3024 3024 3025 3026 3027 3027 3028 3027 3027 3027 3028 3028 3029 3030 3030 3031 3032 3033 3034 3035 3035 3036 3037 3037 3038 3039 3040 3041 3042 3043 3045 3045 3046 3047 3048 3050 3050 3052 3054 3055
3016 3016 3017 3017 3017 3017 3017 3017 3017 3017 3017 3017 3017 3017 3016 3016 3017 3017 3017 3018 3018 3018 3018 3019 3019 3020 3020 3020 3021 3022 3022 3023 3024 3025 3026 3027 3027 3027 3027 3027 3028 3028 3028 3028 3029 3030 3032 3033 3033 3034 3035 3036 3036 3037 3038 3039 3040 3041 3042 3043 3044 3045 3046 3047 3048 3050 3052 3053 3054
3015 3015 3015 3015 3016 3016 3016 3016 3016 3016 3016 3016 3016 3016 3016 3015 3016 3016 3016 3017 3017 3017 3017 3017 3018 3018 3019 3019 3020 3020 3021 3021 3022 3023 3024 3025 3026 3026 3027 3027 3027 3027 3027 3027 3027 3028 3030 3031 3032 3033 3034 3035 3035 3036 3037 3038 3039 3040 3040 3042 3043 3044 3045 3045 3046 3048 3050 3051 3052
3013 3013 3014 3014 3014 3014 3015 3015 3015 3015 3015 3015 3015 3015 3015 3015 3015 3015 3015 3015 3015 3015 3016 3016 3016 3017 3017 3018 3018 3019 3019 3020 3020 3021 3022 3023 3024 3025 3025 3026 3027 3027 3027 3027 3026 3027 3028 3029 3030 3031 3033 3033 3034 3035 3036 3037 3038 3039 3040 3040 3041 3042 3043 3044 3045 3047 3049 3049 3050
3011 3011 3012 3012 3012 3013 3013 3013 3013 3013 3014 3014 3014 3014 3014 3014 3014 3014 3014 3015 3015 3015 3015 3015 3015 3015 3016 3016 3017 3017 3018 3018 3019 3020 3020 3021 3022 3023 3024 3025 3026 3026 3027 3027 3026 3026 3026 3027 3028 3030 3031 3032 3033 3034 3035 3036 3037 3038 3039 3040 3040 3041 3042 3043 3045 3046 3047 3047 3048
3009 3010 3010 3010 3010 3011 3011 3012 3012 3012 3012 3012 3013 3013 3013 3013 3013 3013 3013 3013 3013 3014 3014 3014 3014 3015 3015 3015 3015 3016 3016 3017 3017 3018 3019 3019 3020 3021 3022 3023 3024 3025 3026 3026 3026 3026 3026 3026 3026 3027 3029 3030 3031 3033 3034 3035 3035 3036 3038 3039 3040 3041 3041 3042 3044 3045 3045 3046 3046
3008 3008 3008 3008 3009 3009 3010 3010 3010 3010 3010 3011 3011 3011 3012 3012 3012 3012 3012 3012 3012 3012 3013 3013 3013 3013 3014 3014 3014 3015 3015 3015 3016 3017 3017 3018 3018 3019 3020 3021 3022 3023 3024 3025 3025 3025 3025 3025 3025 3026 3026 3028 3029 3030 3032 3033 3034 3035 3036 3037 3038 3039 3040 3041 3042 3043 3044 3045 3045
3006 3006 3006 3007 3007 3007 3008 3008 3009 3009 3009 3009 3010 3010 3010 3010 3011 3011 3011 3011 3011 3011 3011 3012 3012 3012 3012 3013 3013 3014 3014 3014 3015 3015 3016 3016 3017 3017 3018 3019 3020 3021 3022 3023 3024 3024 3025 3025 3025 3025 3025 3025 3026 3028 3030 3032 3033 3034 3035 3036 3037 3038 3039 3040 3041 3041 3042 3043 3044
3004 3004 3005 3005 3005 3006 3006 3006 3007 3007 3007 3008 3008 3008 3008 3009 3009 3010 3010 3010 3010 3010 3010 3010 3010 3011 3011 3011 3012 3012 3013 3013 3013 3014 3014 3015 3015 3016 3017 3017 3018 3019 3020 3020 3021 3022 3023 3024 3025 3025 3025 3025 3025 3026 3028 3030 3031 3032 3033 3035 3035 3036 3037 3038 3039 3040 3041 3042 3043
3002 3002 3003 3003 3004 3004 3004 3005 3005 3005 3005 3006 3006 3006 3007 3007 3008 3008 3008 3009 3009 3009 3009 3009 3010 3010 3010 3010 3010 3011 3011 3012 3012 3012 3013 3013 3014 3015 3015 3016 3016 3017 3018 3019 3020 3020 3021 3022 3023 3024 3024 3024 3024 3024 3025 3027 3029 3030 3032 3033 3034 3035 3036 3037 3038 3039 3040 3040 3041
3000 3000 3001 3001 3002 3002 3003 3003 3003 3004 3004 3004 3004 3005 3005 3005 3006 3006 3007 3007 3007 3007 3008 3008 3008 3009 3009 3009 3009 3010 3010 3010 3011 3011 3011 3012 3012 3013 3014 3014 3015 3015 3016 3017 3017 3018 3019 3020 3021 3022 3023 3023 3023 3023 3024 3025 3026 3028 3030 3031 3032 3034 3035 3035 3036 3038 3039 3039 3040
2998 2999 2999 3000 3000 3000 3001 3001 3002 3002 3002 3002 3003 3003 3003 3004 3004 3005 3005 3005 3006 3006 3006 3007 3007 3007 3008 3008 3008 3008 3009 3009 3009 3010 3010 3010 3011 3011 3012 3013 3013 3014 3015 3015 3015 3016 3017 3018 3019 3020 3021 3021 3022 3022 3023 3023 3024 3025 3027 3029 3030 3032 3033 3034 3035 3036 3037 3038 3039
2996 2996 2997 2998 2998 2999 2999 3000 3000 3000 3000 3000 3001 3001 3002 3002 3002 3003 3003 3004 3004 3004 3005 3005 3005 3006 3006 3006 3007 3007 3007 3008 3008 3008 3009 3009 3010 3010 3010 3011 3012 3012 3013 3013 3014 3014 3015 3016 3017 3018 3019 3019 3020 3021 3021 3022 3023 3024 3025 3026 3028 3030 3031 3032 3033 3034 3035 3037 3038
2994 2994 2995 2995 2996 2997 2997 2998 2998 2998 2999 2999 2999 3000 3000 3000 3000 3001 3001 3002 3002 3003 3003 3004 3004 3005 3005 3005 3005 3006 3006 3006 3006 3007 3007 3008 3008 3009 3009 3010 3010 3010 3011 3012 3012 3013 3013 3014 3015 3015 3016 3017 3018 3019 3020 3020 3021 3022 3023 3024 3025 3027 3028 3030 3031 3032 3033 3035 3035
2992 2992 2993 2994 2994 2995 2995 2996 2996 2996 2996 2997 2997 2998 2998 2999 2999 2999 3000 3000 3000 3001 3001 3002 3002 3003 3003 3004 3004 3004 3005 3005 3005 3005 3006 3006 3007 3007 3007 3008 3008 3009 3010 3010 3010 3011 3012 3012 3013 3014 3014 3015 3016 3017 3017 3018 3019 3020 3021 3022 3023 3025 3026 3027 3029 3030 3031 3032 3033
2990 2990 2991 2991 2992 2993 2993 2994 2994 2994 2995 2995 2995 2996 2996 2997 2997 2998 2998 2998 2999 2999 3000 3000 3000 3001 3001 3002 3002 3003 3003 3004 3004 3004 3005 3005 3005 3005 3006 3006 3007 3007 3008 3008 3009 3010 3010 3010 3011 3012 3012 3013 3014 3015 3015 3016 3017 3018 3019 3020 3021 3023 3024 3025 3026 3027 3028 3030 3031
2988 2988 2989 2989 2990 2990 2991 2991 2992 2992 2992 2993 2994 2994 2995 2995 2995 2996 2996 2996 2997 2997 2998 2998 2999 2999 3000 3000 3001 3001 3002 3002 3002 3003 3003 3004 3004 3004 3005 3005 3005 3006 3006 3007 3007 3008 3008 3009 3009 3010 3010 3011 3012 3013 3014 3014 3015 3016 3017 3018 3019 3020 3021 3023 3024 3025 3025 3026 3028
2986 2986 2986 2987 2987 2988 2988 2989 2989 2990 2990 2991 2992 2992 2993 2993 2994 2994 2995 2995 2995 2995 2996 2996 2997 2998 2998 2999 2999 3000 3000 3000 3001 3001 3002 3002 3002 3003 3003 3004 3004 3004 3005 3005 3005 3006 3007 3007 3008 3008 3009 3010 3010 3011 3012 3012 3013 3014 3015 3016 3017 3018 3019 3020 3021 3022 3023 3024 3025
2984 2984 2984 2985 2985 2985 2986 2986 2987 2988 2989 2989 2990 2990 2991 2991 2992 2992 2993 2993 2994 2994 2994 2995 2995 2996 2996 2997 2997 2998 2999 2999 2999 3000 3000 3000 3001 3001 3002 3002 3002 3003 3003 3004 3004 3005 3005 3005 3006 3006 3007 3008 3008 3009 3010 3010 3011 3012 3013 3014 3015 3015 3016 3017 3018 3020 3021 3022 3023
2982 2982 2982 2982 2983 2983 2984 2984 2985 2985 2986 2987 2988 2988 2989 2990 2990 2990 2991 2991 2992 2992 2992 2993 2993 2994 2995 2995 2996 2996 2997 2997 2998 2998 2999 2999 3000 3000 3000 3001 3001 3001 3002 3002 3003 3003 3004 3004 3004 3005 3005 3006 3006 3007 3008 3009 3009 3010 3011 3012 3013 3014 3014 3015 3016 3017 3018 3019 3020
2979 2980 2980 2980 2980 2981 2981 2982 2982 2983 2984 2985 2985 2986 2987 2987 2988 2989 2989 2990 2990 2990 2991 2991 2991 2992 2993 2993 2994 2995 2995 2996 2996 2997 2997 2998 2998 2998 2999 2999 3000 3000 3000 3001 3001 3002 3002 3002 3003 3003 3004 3004 3005 3005 3006 3007 3007 3008 3009 3010 3011 3012 3013 3013 3014 3015 3016 3017 3018
2976 2977 2977 2978 2978 2979 2979 2980 2980 2981 2981 2982 2983 2984 2985 2985 2986 2987 2987 2988 2988 2989 2989 2989 2990 2990 2991 2991 2992 2993 2993 2994 2995 2995 2996 2996 2996 2997 2997 2998 2998 2999 2999 3000 3000 3000 3001 3001 3001 3002 3002 3003 3003 3004 3004 3005 3005 3006 3007 3008 3009 3010 3011 3011 3012 3013 3014 3015 3015
2974 2974 2975 2975 2976 2976 2977 2977 2978 2978 2979 2980 2981 2981 2982 2983 2984 2985 2985 2986 2986 2987 2987 2988 2988 2989 2989 2989 2990 2990 2991 2992 2993 2993 2994 2995 2995 2995 2996 2996 2997 2997 2998 2998 2999 2999 3000 3000 3000 3000 3001 3001 3001 3002 3002 3003 3004 3004 3005 3006 3007 3008 3009 3010 3010 3011 3012 3013 3014
2971 2971 2972 2972 2973 2974 2974 2975 2975 2976 2976 2977 2978 2979 2980 2980 2981 2982 2983 2984 2985 2985 2986 2986 2986 2987 2987 2987 2988 2989 2989 2990 2991 2992 2992 2993 2993 2994 2994 2995 2995 2996 2996 2997 2997 2998 2998 2999 2999 2999 3000 3000 3000 3000 3001 3001 3002 3002 3003 3004 3005 3006 3007 3008 3009 3009 3010 3011 3012
2969 2969 2969 2970 2970 2971 2972 2972 2973 2973 2974 2975 2975 2976 2976 2978 2979 2980 2981 2982 2983 2983 2984 2984 2985 2985 2985 2985 2986 2986 2987 2988 2989 2990 2990 2991 2991 2992 2993 2993 2994 2994 2995 2995 2996 2996 2997 2997 2998 2998 2998 2998 2999 2999 2999 3000 3000 3000 3001 3002 3003 3004 3005 3005 3006 3007 3008 3009 3010
2966 2966 2966 2967 2967 2968 2969 2970 2970 2971 2971 2972 2972 2973 2974 2975 2976 2977 2979 2980 2980 2981 2982 2982 2983 2983 2983 2984 2984 2985 2985 2986 2987 2988 2988 2989 2990 2990 2991 2991 2992 2993 2993 2994 2995 2995 2995 2996 2996 2997 2997 2997 2997 2998 2998 2998 2999 2999 3000 3000 3001 3001 3002 3003 3004 3005 3006 3007 3008
2964 2964 2964 2965 2965 2965 2966 2967 2967 2968 2968 2969 2970 2970 2971 2972 2974 2975 2976 2977 2978 2979 2980 2980 2981 2981 2982 2982 2982 2982 2983 2984 2985 2985 2986 2987 2988 2988 2989 2990 2990 2991 2991 2992 2993 2994 2994 2995 2995 2995 2995 2995 2996 2996 2997 2997 2997 2997 2998 2998 2999 3000 3000 3001 3002 3003 3004 3005 3005
2962 2962 2962 2962 2962 2963 2963 2964 2965 2965 2966 2966 2967 2968 2969 2970 2971 2972 2974 2975 2975 2976 2977 2978 2979 2980 2980 2980 2980 2980 2981 2981 2982 2983 2984 2985 2985 2986 2987 2987 2988 2989 2990 2990 2991 2992 2992 2993 2993 2994 2994 2994 2995 2995 2995 2996 2996 2996 2996 2997 2997 2998 2998 2999 3000 3001 3001 3002 3003
2960 2960 2960 2960 2960 2960 2960 2961 2962 2962 2963 2964 2965 2965 2966 2967 2969 2970 2971 2972 2973 2974 2975 2976 2977 2977 2978 2978 2978 2978 2979 2980 2980 2981 2982 2983 2984 2984 2985 2985 2986 2987 2988 2989 2989 2990 2990 2991 2991 2992 2992 2993 2993 2994 2994 2994 2995 2995 2995 2995 2996 2996 2997 2997 2998 2999 2999 3000 3001
2958 2958 2957 2957 2957 2957 2958 2958 2959 2959 2960 2961 2962 2963 2964 2965 2966 2967 2968 2970 2971 2972 2973 2974 2975 2975 2975 2976 2976 2977 2977 2978 2978 2979 2980 2980 2981 2982 2983 2984 2984 2985 2986 2987 2987 2988 2989 2989 2990 2990 2990 2991 2991 2992 2992 2993 2993 2994 2994 2994 2994 2995 2995 2995 2996 2996 2997 2998 2999
2955 2955 2955 2955 2955 2955 2955 2955 2955 2956 2957 2958 2959 2960 2961 2962 2964 2965 2966 2967 2968 2969 2970 2971 2972 2973 2974 2974 2975 2975 2975 2975 2976 2977 2977 2978 2979 2980 2981 2981 2982 2983 2984 2985 2985 2986 2987 2987 2988 2988 2989 2989 2990 2990 2991 2991 2992 2992 2992 2993 2993 2993 2994 2994 2994 2995 2995 2996 2996
2953 2953 2953 2953 2952 2952 2952 2952 2952 2953 2954 2955 2956 2957 2958 2960 2961 2962 2963 2964 2965 2966 2967 2969 2970 2971 2971 2972 2973 2973 2973 2974 2974 2974 2975 2976 2977 2978 2979 2979 2980 2981 2982 2983 2984 2984 2985 2985 2986 2986 2987 2987 2988 2988 2989 2990 2990 2990 2991 2991 2991 2992 2992 2992 2993 2993 2993 2994 2994
2950 2950 2950 2950 2950 2950 2950 2950 2950 2950 2951 2952 2953 2954 2955 2956 2958 2959 2960 2961 2962 2964 2965 2966 2967 2969 2970 2970 2970 2971 2971 2971 2971 2972 2973 2974 2975 2975 2976 2977 2978 2979 2980 2981 2981 2982 2983 2984 2984 2985 2985 2985 2986 2986 2987 2988 2988 2989 2989 2989 2990 2990 2990 2991 2991 2991 2992 2992 2992
2947 2947 2947 2947 2947 2947 2947 2947 2947 2947 2948 2949 2950 2950 2952 2953 2955 2956 2957 2958 2960 2961 2962 2964 2965 2966 2967 2968 2968 2968 2969 2969 2970 2970 2971 2971 2972 2973 2974 2975 2976 2977 2978 2979 2980 2980 2981 2981 2982 2983 2983 2983 2984 2985 2985 2985 2986 2986 2987 2988 2988 2989 2989 2989 2990 2990 2990 2990 2990
2944 2944 2944 2944 2945 2945 2944 2944 2945 2945 2945 2946 2946 2947 2949 2950 2951 2953 2954 2955 2957 2958 2960 2961 2962 2963 2964 2965 2965 2965 2966 2967 2967 2968 2969 2969 2970 2971 2972 2973 2974 2975 2976 2977 2977 2978 2979 2980 2980 2980 2981 2981 2982 2983 2983 2984 2984 2985 2985 2985 2986 2987 2987 2987 2988 2988 2988 2989 2989
2941 2941 2941 2942 2942 2942 2942 2942 2942 2942 2943 2943 2944 2945 2945 2947 2948 2950 2951 2952 2954 2955 2957 2958 2959 2960 2961 2962 2962 2963 2964 2965 2965 2966 2966 2967 2968 2968 2969 2970 2971 2972 2973 2975 2975 2976 2977 2978 2978 2979 2979 2980 2980 2980 2981 2982 2982 2983 2983 2984 2984 2985 2985 2985 2986 2986 2986 2987 2987